TimeCST,TemperatureF,Dew PointF,Humidity,Sea Level PressureIn,VisibilityMPH,Wind Direction,Wind SpeedMPH,Gust SpeedMPH,PrecipitationIn,Events,Conditions,WindDirDegrees,DateUTC
12:15 AM,36.5,35.1,95,30.28,7.0,Calm,Calm,-,N/A,,Clear,0,2012-12-14 06:15:00
12:35 AM,35.6,34.3,95,30.28,7.0,Calm,Calm,-,N/A,,Clear,0,2012-12-14 06:35:00
12:55 AM,35.6,34.3,95,30.27,7.0,Calm,Calm,-,N/A,,Clear,0,2012-12-14 06:55:00
1:15 AM,35.6,34.3,95,30.26,10.0,ENE,3.5,-,N/A,,Scattered Clouds,70,2012-12-14 07:15:00
1:35 AM,37.6,34.9,90,30.26,10.0,East,3.5,-,N/A,,Mostly Cloudy,80,2012-12-14 07:35:00
1:55 AM,40.3,34.7,80,30.25,10.0,Calm,Calm,-,N/A,,Mostly Cloudy,0,2012-12-14 07:55:00
2:15 AM,41.5,34.5,76,30.24,10.0,East,4.6,-,N/A,,Mostly Cloudy,80,2012-12-14 08:15:00
2:35 AM,42.4,34.5,74,30.24,10.0,Calm,Calm,-,N/A,,Overcast,0,2012-12-14 08:35:00
2:55 AM,43.7,35.1,72,30.24,10.0,ENE,3.5,-,N/A,,Overcast,60,2012-12-14 08:55:00
3:15 AM,44.4,35.4,71,30.23,10.0,Calm,Calm,-,N/A,,Overcast,0,2012-12-14 09:15:00
3:35 AM,45.1,35.4,69,30.24,10.0,Calm,Calm,-,N/A,,Mostly Cloudy,0,2012-12-14 09:35:00
3:55 AM,44.1,36.5,75,30.25,10.0,Calm,Calm,-,N/A,,Scattered Clouds,0,2012-12-14 09:55:00
4:15 AM,42.8,37.0,80,30.25,10.0,Calm,Calm,-,N/A,,Mostly Cloudy,0,2012-12-14 10:15:00
4:35 AM,43.2,38.1,82,30.25,10.0,Calm,Calm,-,N/A,,Overcast,0,2012-12-14 10:35:00
4:55 AM,44.4,38.3,79,30.25,10.0,Calm,Calm,-,N/A,,Overcast,0,2012-12-14 10:55:00
5:15 AM,45.1,36.7,72,30.24,10.0,Calm,Calm,-,N/A,,Overcast,0,2012-12-14 11:15:00
5:35 AM,45.7,37.0,72,30.24,10.0,Calm,Calm,-,N/A,,Overcast,0,2012-12-14 11:35:00
6:15 AM,46.6,36.7,68,30.26,10.0,Calm,Calm,-,N/A,,Overcast,0,2012-12-14 12:15:00
6:35 AM,47.3,37.2,68,30.25,10.0,ENE,4.6,-,N/A,,Overcast,70,2012-12-14 12:35:00
6:55 AM,47.3,36.3,66,30.26,10.0,East,3.5,-,N/A,,Mostly Cloudy,90,2012-12-14 12:55:00
7:15 AM,47.3,36.3,66,30.26,10.0,Calm,Calm,-,N/A,,Mostly Cloudy,0,2012-12-14 13:15:00
7:35 AM,48.0,36.7,65,30.27,10.0,Calm,Calm,-,N/A,,Overcast,0,2012-12-14 13:35:00
7:55 AM,48.7,36.7,63,30.26,10.0,ENE,3.5,-,N/A,,Overcast,70,2012-12-14 13:55:00
8:15 AM,49.6,37.4,63,30.25,10.0,East,5.8,-,N/A,,Overcast,80,2012-12-14 14:15:00
8:35 AM,51.1,37.9,61,30.26,10.0,East,4.6,-,N/A,,Overcast,90,2012-12-14 14:35:00
8:55 AM,52.3,38.1,58,30.26,10.0,East,4.6,-,N/A,,Overcast,100,2012-12-14 14:55:00
9:15 AM,53.6,39.0,58,30.26,10.0,East,4.6,-,N/A,,Overcast,100,2012-12-14 15:15:00
9:35 AM,54.5,39.2,56,30.26,10.0,East,4.6,-,N/A,,Overcast,90,2012-12-14 15:35:00
9:55 AM,55.4,39.2,54,30.25,10.0,ESE,6.9,-,N/A,,Overcast,110,2012-12-14 15:55:00
10:15 AM,56.3,39.0,52,30.27,10.0,SE,3.5,-,N/A,,Overcast,140,2012-12-14 16:15:00
10:35 AM,57.2,39.7,52,30.25,10.0,ESE,9.2,-,N/A,,Mostly Cloudy,110,2012-12-14 16:35:00
10:55 AM,58.5,40.3,51,30.24,10.0,SE,8.1,-,N/A,,Mostly Cloudy,130,2012-12-14 16:55:00
11:15 AM,59.0,40.8,51,30.24,10.0,ESE,5.8,-,N/A,,Mostly Cloudy,120,2012-12-14 17:15:00
11:35 AM,60.6,42.1,50,30.23,10.0,ESE,4.6,-,N/A,,Mostly Cloudy,110,2012-12-14 17:35:00
11:55 AM,60.4,43.2,53,30.20,10.0,ESE,4.6,-,N/A,,Mostly Cloudy,110,2012-12-14 17:55:00
12:15 PM,60.6,44.4,55,30.18,10.0,East,6.9,-,N/A,,Mostly Cloudy,90,2012-12-14 18:15:00
12:35 PM,61.0,45.5,57,30.17,10.0,ESE,8.1,-,N/A,,Overcast,120,2012-12-14 18:35:00
12:55 PM,60.8,46.6,59,30.15,10.0,ESE,5.8,-,N/A,,Mostly Cloudy,110,2012-12-14 18:55:00
1:15 PM,61.5,47.7,60,30.14,10.0,ESE,3.5,-,N/A,,Mostly Cloudy,120,2012-12-14 19:15:00
1:35 PM,62.6,48.9,61,30.13,10.0,SE,3.5,-,N/A,,Mostly Cloudy,140,2012-12-14 19:35:00
1:55 PM,62.2,49.5,63,30.12,10.0,ESE,4.6,-,N/A,,Scattered Clouds,120,2012-12-14 19:55:00
2:15 PM,61.7,50.0,65,30.11,10.0,ESE,5.8,-,N/A,,Scattered Clouds,110,2012-12-14 20:15:00
2:35 PM,62.2,50.5,65,30.10,10.0,East,5.8,-,N/A,,Mostly Cloudy,100,2012-12-14 20:35:00
2:55 PM,61.9,51.1,68,30.10,10.0,ESE,5.8,-,N/A,,Overcast,120,2012-12-14 20:55:00
3:15 PM,61.7,51.6,69,30.09,10.0,SE,6.9,-,N/A,,Overcast,130,2012-12-14 21:15:00
3:35 PM,61.7,52.0,70,30.09,10.0,East,5.8,-,N/A,,Overcast,100,2012-12-14 21:35:00
3:55 PM,61.7,52.7,72,30.07,10.0,ESE,5.8,-,N/A,,Overcast,110,2012-12-14 21:55:00
4:15 PM,62.1,52.9,72,30.07,10.0,SE,4.6,-,N/A,,Overcast,130,2012-12-14 22:15:00
4:35 PM,62.1,53.2,73,30.06,10.0,SE,3.5,-,N/A,,Overcast,130,2012-12-14 22:35:00
4:55 PM,61.9,53.4,74,30.06,10.0,ESE,5.8,-,N/A,,Overcast,110,2012-12-14 22:55:00
5:15 PM,61.7,53.6,75,30.06,10.0,ESE,3.5,-,N/A,,Overcast,120,2012-12-14 23:15:00
5:35 PM,61.7,53.6,75,30.05,10.0,ESE,4.6,-,N/A,,Overcast,120,2012-12-14 23:35:00
5:55 PM,61.7,54.1,76,30.04,10.0,East,3.5,-,N/A,,Overcast,90,2012-12-14 23:55:00
6:15 PM,61.9,54.7,77,30.04,10.0,East,3.5,-,N/A,,Overcast,100,2012-12-15 00:15:00
6:35 PM,62.2,55.2,78,30.04,10.0,ESE,5.8,-,N/A,,Overcast,110,2012-12-15 00:35:00
6:55 PM,62.4,55.8,79,30.03,10.0,ESE,6.9,-,N/A,,Mostly Cloudy,120,2012-12-15 00:55:00
7:15 PM,63.0,56.5,79,30.04,10.0,ESE,8.1,-,N/A,,Mostly Cloudy,120,2012-12-15 01:15:00
7:35 PM,63.5,57.0,79,30.03,10.0,SE,9.2,-,N/A,,Overcast,130,2012-12-15 01:35:00
7:55 PM,63.5,57.2,80,30.03,10.0,SE,9.2,17.3,N/A,,Scattered Clouds,140,2012-12-15 01:55:00
8:15 PM,63.5,57.6,81,30.04,10.0,SE,5.8,-,N/A,,Mostly Cloudy,130,2012-12-15 02:15:00
8:35 PM,63.5,57.7,81,30.04,10.0,ESE,6.9,-,N/A,,Overcast,120,2012-12-15 02:35:00
8:55 PM,63.1,58.1,84,30.03,10.0,SE,8.1,-,N/A,,Overcast,140,2012-12-15 02:55:00
9:15 PM,63.5,58.1,83,30.04,10.0,SE,5.8,-,N/A,,Overcast,130,2012-12-15 03:15:00
9:35 PM,63.1,58.3,84,30.04,10.0,SE,3.5,-,N/A,,Overcast,140,2012-12-15 03:35:00
9:55 PM,63.0,58.3,85,30.03,10.0,SE,5.8,-,N/A,,Mostly Cloudy,130,2012-12-15 03:55:00
10:15 PM,62.8,58.3,85,30.02,10.0,SE,5.8,-,N/A,,Scattered Clouds,140,2012-12-15 04:15:00
10:35 PM,62.6,58.6,87,30.03,10.0,SE,6.9,-,N/A,,Scattered Clouds,130,2012-12-15 04:35:00
10:55 PM,62.8,59.0,87,30.02,10.0,SE,5.8,-,N/A,,Scattered Clouds,130,2012-12-15 04:55:00
11:15 PM,63.0,59.2,87,30.01,10.0,SE,6.9,-,N/A,,Scattered Clouds,130,2012-12-15 05:15:00
11:35 PM,63.0,59.4,88,30.01,10.0,SE,6.9,-,N/A,,Scattered Clouds,130,2012-12-15 05:35:00
11:55 PM,63.3,59.4,87,30.02,10.0,SE,5.8,-,N/A,,Mostly Cloudy,130,2012-12-15 05:55:00